Weather reports worldwide

Advertisment
Leutkirch-Herlazhofen, Germany (10945): temperature & dewpoint: 24.10.2020 11:00:00 - 30.10.2020 11:00:00 (CET)Leutkirch-Herlazhofen, Germany (10945): temperature 5cm & temperature -5cm: 24.10.2020 11:00:00 - 30.10.2020 11:00:00 (CET)Leutkirch-Herlazhofen, Germany (10945): temperature -20cm & temperature -100cm: 24.10.2020 11:00:00 - 30.10.2020 11:00:00 (CET)Leutkirch-Herlazhofen, Germany (10945): wind speed & gusts: 24.10.2020 11:00:00 - 30.10.2020 11:00:00 (CET)Leutkirch-Herlazhofen, Germany (10945): wind direction: 24.10.2020 11:00:00 - 30.10.2020 11:00:00 (CET)Leutkirch-Herlazhofen, Germany (10945): reduced air pressure: 24.10.2020 11:00:00 - 30.10.2020 11:00:00 (CET)Leutkirch-Herlazhofen, Germany (10945): visibility: 24.10.2020 11:00:00 - 30.10.2020 11:00:00 (CET)Leutkirch-Herlazhofen, Germany (10945): sunshine duration: 24.10.2020 11:00:00 - 30.10.2020 11:00:00 (CET)Leutkirch-Herlazhofen, Germany (10945): precipitation: 24.10.2020 11:00:00 - 30.10.2020 11:00:00 (CET)
Date & Time tt [°C] td [°C] tt 5cm [°C] tt -5cm [°C] tt -20cm [°C] tt -100cm [°C] ff [km/h] ff [kn] fx [km/h] fx [kn] dd ppp [hPa] vv [km] sd [min] rr [mm]
30.10.2020 11:00:00 11,0 7,6 11,6 9,3 8,8 11,2 16 9 29 15 SSW 1026,2 75 0 0,0
30.10.2020 10:00:00 10,4 7,4 10,3 9,0 8,8 11,2 18 10 29 15 SW 1026,1 75 0 0,0
30.10.2020 09:00:00 9,9 7,3 9,8 8,6 8,7 11,2 12 7 27 15 SW 1026,1 75 0 0,0
30.10.2020 08:00:00 9,7 7,1 9,3 8,4 8,7 11,2 18 10 28 15 SW 1025,7 70 0 0,0
30.10.2020 07:00:00 9,5 6,9 9,0 8,3 8,7 11,2 16 9 29 15 SW 1025,0 75 0 0,0
30.10.2020 06:00:00 9,3 7,0 8,7 8,3 8,7 11,2 16 9 29 16 SW 1024,6 75 0 0,0
30.10.2020 05:00:00 9,3 7,2 8,8 8,3 8,7 11,2 18 10 29 15 SW 1024,5 75 0 0,0
30.10.2020 04:00:00 8,9 7,4 8,6 8,3 8,7 11,3 16 9 23 13 SSW 1024,7 75 0 0,0
30.10.2020 03:00:00 9,0 7,7 8,6 8,3 8,7 11,3 15 8 24 13 SSW 1025,0 27 0 0,0
30.10.2020 02:00:00 9,0 7,6 8,4 8,2 8,7 11,3 17 9 35 19 SSW 1025,0 54 0 0,3
30.10.2020 01:00:00 8,9 7,7 8,3 8,3 8,7 11,3 19 10 31 17 SSW 1025,3 17 0 0,4
30.10.2020 00:00:00 9,0 7,9 8,5 8,3 8,7 11,3 19 11 30 16 SW 1025,1 16 0 0,9
29.10.2020 23:00:00 8,8 7,8 8,4 8,2 8,7 11,3 14 7 24 13 SW 1024,9 12 0 1,3
29.10.2020 22:00:00 8,6 7,5 8,1 8,2 8,7 11,3 13 7 23 13 SW 1025,2 16 0 1,1
29.10.2020 21:00:00 8,4 7,4 8,0 8,2 8,7 11,3 13 7 24 13 SW 1025,1 15 0 1,0
29.10.2020 20:00:00 8,4 7,2 7,9 8,2 8,7 11,3 14 7 27 15 SW 1024,8 29 0 0,7
29.10.2020 19:00:00 8,6 7,3 8,0 8,4 8,7 11,3 16 9 31 17 SW 1024,8 15 0 0,4
29.10.2020 18:00:00 8,7 7,4 8,2 8,5 8,7 11,4 18 10 30 16 SW 1024,1 59 0 0,2
29.10.2020 17:00:00 9,0 7,4 8,4 8,8 8,6 11,4 22 12 34 18 SW 1023,2 66 0 0,0
29.10.2020 16:00:00 9,2 7,6 8,7 8,9 8,6 11,4 18 10 32 17 WSW 1022,8 45 0 0,5
29.10.2020 15:00:00 9,3 7,3 9,0 8,9 8,5 11,4 25 13 39 21 WSW 1022,7 72 0 0,1
29.10.2020 14:00:00 9,6 7,6 9,7 8,7 8,4 11,4 20 11 40 21 WSW 1022,2 75 0 0,0
29.10.2020 13:00:00 9,3 7,1 9,3 8,5 8,4 11,4 27 15 43 23 WSW 1022,3 75 0 0,0
29.10.2020 12:00:00 8,9 7,0 8,8 8,4 8,3 11,4 26 14 42 23 SW 1022,4 75 0 0,0
29.10.2020 11:00:00 8,7 7,0 8,3 8,3 8,3 11,4 26 14 45 24 WSW 1022,3 75 0 0,1
29.10.2020 10:00:00 8,8 7,0 8,4 8,0 8,2 11,5 28 15 49 26 WSW 1021,6 58 0 0,3
29.10.2020 09:00:00 8,7 7,2 8,2 7,8 8,2 11,5 30 16 45 24 SW 1020,5 27 0 1,2
29.10.2020 08:00:00 8,6 7,0 7,9 7,7 8,2 11,5 29 16 44 24 SW 1020,0 22 0 1,9
29.10.2020 07:00:00 8,2 7,0 7,8 7,6 8,2 11,5 20 11 35 19 SW 1019,1 14 0 2,6
29.10.2020 06:00:00 8,5 6,8 7,7 7,6 8,1 11,5 16 9 27 15 SW 1018,4 24 0 0,4
29.10.2020 05:00:00 8,5 7,2 7,9 7,7 8,1 11,5 18 10 31 17 SSW 1018,0 75 0 1,8
29.10.2020 04:00:00 8,9 7,1 8,1 7,5 8,1 11,5 20 11 40 22 SW 1018,1 25 0 0,1
29.10.2020 03:00:00 9,5 6,3 8,1 7,5 8,1 11,5 22 12 30 16 SW 1017,8 73 0 0,1
29.10.2020 02:00:00 8,7 7,2 8,0 7,4 8,1 11,5 10 5 29 16 SSW 1018,2 75 0 0,7
29.10.2020 01:00:00 8,6 6,6 7,6 7,3 8,1 11,5 12 6 31 17 S 1018,5 75 0 0,0
29.10.2020 00:00:00 8,6 6,9 7,8 7,2 8,1 11,5 19 10 34 18 SSW 1019,1 66 0 0,2
28.10.2020 23:00:00 8,4 7,1 7,7 7,0 8,1 11,6 16 8 23 12 S 1018,8 22 0 1,9
28.10.2020 22:00:00 8,4 5,8 7,4 6,7 8,2 11,6 8 5 17 9 SW 1018,2 21 0 0,0
28.10.2020 21:00:00 8,1 5,1 7,0 6,5 8,3 11,6 12 6 20 11 S 1017,9 74 0 0,0
28.10.2020 20:00:00 7,5 4,7 5,9 6,8 8,3 11,6 14 7 22 12 S 1018,6 74 0 0,0
28.10.2020 19:00:00 7,9 5,2 6,4 7,3 8,3 11,6 14 8 19 10 S 1018,6 75 0 0,0
28.10.2020 18:00:00 8,1 6,0 6,0 8,3 8,3 11,6 10 6 16 9 S 1018,5 75 1 0,0
28.10.2020 17:00:00 9,4 6,9 8,4 9,1 8,1 11,6 13 7 23 12 SSW 1017,7 75 19 0,1
28.10.2020 16:00:00 9,7 7,4 9,3 9,2 8,0 11,6 15 8 23 13 SW 1017,5 22 0 0,1
28.10.2020 15:00:00 9,9 7,4 9,8 9,3 7,8 11,6 16 8 32 17 SW 1017,3 43 0 0,0
28.10.2020 14:00:00 10,3 6,7 10,6 9,3 7,5 11,6 13 7 25 13 SW 1016,8 75 0 0,0
28.10.2020 13:00:00 9,9 6,7 10,3 9,2 7,2 11,6 14 7 23 12 SSW 1016,9 70 2 0,0
28.10.2020 12:00:00 8,9 7,0 9,2 8,6 7,0 11,6 15 8 29 16 SSW 1017,8 71 22 0,0
28.10.2020 11:00:00 7,2 6,1 8,8 7,0 6,9 11,7 17 9 29 15 SSW 1018,1 66 1 0,2
28.10.2020 10:00:00 6,1 4,9 6,6 5,7 6,9 11,7 17 9 24 13 SSW 1017,8 3,4 0 0,1
28.10.2020 09:00:00 5,9 3,1 5,4 4,9 6,9 11,7 17 9 27 15 SSW 1017,3 16 0 0,1
28.10.2020 08:00:00 6,4 1,4 5,6 4,2 6,9 11,7 15 8 24 13 SSW 1016,1 75 0 0,0
28.10.2020 07:00:00 4,4 0,9 3,2 4,1 7,0 11,7 14 7 19 10 S 1015,5 75 0 0,0
28.10.2020 06:00:00 4,3 1,3 3,2 4,3 7,1 11,7 9 5 13 7 S 1015,2 75 0 0,0
28.10.2020 05:00:00 4,1 0,9 2,8 4,4 7,1 11,7 11 6 14 8 S 1015,0 75 0 0,0
28.10.2020 04:00:00 4,6 1,5 3,4 4,5 7,2 11,7 10 5 21 11 S 1014,9 75 0 0,1
28.10.2020 03:00:00 5,1 1,2 3,9 4,3 7,3 11,7 6 4 19 10 SSW 1015,1 75 0 0,0
28.10.2020 02:00:00 4,1 1,4 2,9 4,0 7,4 11,7 7 4 11 6 S 1015,5 70 0 0,0
28.10.2020 01:00:00 3,2 1,5 2,3 3,9 7,6 11,7 8 5 11 6 SSE 1015,7 75 0 0,0
28.10.2020 00:00:00 2,0 0,9 1,2 3,6 7,8 11,7 5 3 12 6 S 1016,1 65 0 0,0
27.10.2020 23:00:00 1,1 0,2 -0,5 3,7 8,0 11,8 6 3 11 6 SE 1016,6 42 0 0,0
27.10.2020 22:00:00 1,4 0,7 -1,4 4,3 8,2 11,8 3 2 10 5 SSE 1016,6 51 0 0,0
27.10.2020 21:00:00 1,8 0,9 0,4 4,9 8,4 11,8 8 4 17 9 S 1016,0 42 0 0,0
27.10.2020 20:00:00 2,7 1,7 0,7 5,6 8,6 11,8 8 4 12 6 SE 1015,6 46 0 0,0
27.10.2020 19:00:00 2,7 1,7 0,0 6,4 8,7 11,8 2 1 7 4 SE 1015,4 49 0 0,0
27.10.2020 18:00:00 2,9 2,2 -0,6 7,6 8,7 11,8 2 1 8 4 S 1015,2 50 0 0,0
27.10.2020 17:00:00 5,9 2,8 3,7 9,0 8,6 11,8 6 4 21 11 S 1014,4 64 - 0,0
27.10.2020 16:00:00 8,5 2,9 9,0 10,0 8,4 11,8 10 6 22 12 SW 1013,7 75 - 0,0
27.10.2020 15:00:00 8,0 3,4 9,7 10,5 8,1 11,8 12 7 30 16 WSW 1013,9 75 - 0,0
27.10.2020 14:00:00 9,0 3,7 11,4 10,2 7,8 11,8 17 9 26 14 SW 1013,5 74 - 0,0
27.10.2020 13:00:00 6,8 3,1 7,5 9,1 7,6 11,8 16 9 27 15 WSW 1014,3 69 - 0,0
27.10.2020 12:00:00 7,6 4,4 10,2 8,2 7,4 11,8 16 9 31 17 SW 1014,0 69 - 0,0
27.10.2020 11:00:00 6,4 4,0 7,5 7,7 7,3 11,8 19 10 26 14 SW 1014,3 61 - 0,0
27.10.2020 10:00:00 6,3 3,9 7,3 6,3 7,2 11,8 13 7 19 11 SW 1013,8 75 - 0,0
27.10.2020 09:00:00 5,6 3,4 6,5 5,2 7,2 11,8 10 6 14 8 SSW 1013,5 66 - 0,0
27.10.2020 08:00:00 3,6 2,5 2,9 4,7 7,3 11,8 8 4 14 8 S 1013,8 75 - 0,0
27.10.2020 07:00:00 4,2 3,0 3,9 4,8 7,3 11,8 11 6 15 8 SSW 1012,9 69 - 0,0
27.10.2020 06:00:00 4,2 3,0 3,8 4,8 7,4 11,8 8 5 15 8 SSW 1012,7 73 - 0,0
27.10.2020 05:00:00 4,1 2,8 3,7 4,8 7,4 11,8 7 4 13 7 SSW 1012,2 66 - 0,0
27.10.2020 04:00:00 3,7 2,5 3,5 4,6 7,5 11,8 2 1 13 7 W 1012,2 75 - 0,0
27.10.2020 03:00:00 3,3 2,2 2,9 4,6 7,5 11,9 8 4 11 6 S 1012,4 71 - 0,0
27.10.2020 02:00:00 3,3 2,1 2,9 4,7 7,6 11,9 9 5 16 9 S 1012,5 75 - 0,0
27.10.2020 01:00:00 3,0 2,0 2,4 4,8 7,7 11,9 6 3 17 9 S 1012,7 75 - 0,0
27.10.2020 00:00:00 3,3 2,3 2,9 4,9 7,8 11,9 8 5 14 7 S 1012,9 75 - 0,0
26.10.2020 23:00:00 3,2 2,4 3,0 4,9 7,9 11,9 6 4 22 12 S 1012,8 75 - 0,2
26.10.2020 22:00:00 2,9 1,7 2,7 4,9 8,0 11,9 13 7 20 11 SSE 1012,7 39 - 0,3
26.10.2020 21:00:00 2,6 1,7 2,6 4,9 8,1 11,9 8 4 19 10 S 1012,8 42 - 0,8
26.10.2020 20:00:00 2,1 1,1 2,0 4,9 8,3 11,9 14 7 19 11 S 1012,3 27 - 1,1
26.10.2020 19:00:00 1,7 0,8 1,7 5,0 8,5 11,9 11 6 16 9 S 1013,1 18 - 1,7
26.10.2020 18:00:00 1,0 0,3 1,1 5,5 8,7 11,9 9 5 21 11 SE 1012,3 15 - 2,6
26.10.2020 17:00:00 2,6 1,5 2,7 6,3 8,8 11,9 13 7 22 12 S 1011,5 26 - 0,9
26.10.2020 16:00:00 3,5 2,3 3,5 6,7 8,9 11,9 9 5 26 14 S 1010,6 25 - 2,1
26.10.2020 15:00:00 4,2 2,5 4,1 7,0 9,0 11,9 16 9 23 12 WSW 1010,4 12 - 2,8
26.10.2020 14:00:00 4,9 3,5 4,6 7,3 9,1 11,9 14 8 28 15 SW 1010,0 14 - 3,3
26.10.2020 13:00:00 5,0 3,4 4,7 7,7 9,1 11,9 19 11 29 16 SW 1009,7 9 - 2,3
26.10.2020 12:00:00 6,0 5,0 6,0 8,1 9,1 11,9 20 11 29 16 WSW 1008,8 12 - 2,2
26.10.2020 11:00:00 6,5 5,0 6,5 8,1 9,1 11,9 14 8 29 16 WSW 1008,2 18 - 0,5
26.10.2020 10:00:00 7,0 5,7 7,0 7,8 9,1 11,9 16 9 33 18 WSW 1007,8 13 - 1,1
26.10.2020 09:00:00 7,5 6,7 7,4 7,5 9,1 11,9 21 11 34 18 W 1007,3 8 - 2,9
26.10.2020 08:00:00 7,8 7,1 7,5 7,0 9,2 11,9 10 5 15 8 SW 1005,8 8 - 0,0
26.10.2020 07:00:00 6,5 6,0 5,8 6,6 9,3 11,9 5 3 14 8 SSW 1005,1 7 - 0,0
26.10.2020 06:00:00 5,3 4,5 2,9 6,8 9,5 11,9 5 3 24 13 S 1004,7 11 - 0,0
26.10.2020 05:00:00 6,8 5,2 5,5 7,1 9,6 11,9 12 6 20 11 S 1004,7 60 - 0,0
26.10.2020 04:00:00 5,8 5,3 5,7 7,0 9,7 11,9 5 3 9 5 SSW 1004,7 56 - 0,0
26.10.2020 03:00:00 4,7 4,2 3,8 7,0 9,9 12,0 2 1 8 4 S 1005,1 48 - 0,0
26.10.2020 02:00:00 4,7 4,0 3,3 7,3 10,0 12,0 3 2 9 5 WSW 1005,9 37 - 0,0
26.10.2020 01:00:00 5,4 4,7 3,6 7,7 10,2 12,0 3 1 5 3 SSW 1006,3 41 - 0,0
26.10.2020 00:00:00 5,4 4,6 4,5 7,9 10,3 12,0 2 1 5 3 ENE 1007,0 45 - 0,0
25.10.2020 23:00:00 6,5 5,0 4,8 8,1 10,5 12,0 0 0 13 7 N 1007,5 59 - 0,0
25.10.2020 22:00:00 7,7 6,3 5,5 8,5 10,7 11,9 5 3 16 8 S 1008,5 53 - 0,0
25.10.2020 21:00:00 8,1 7,4 6,7 9,0 10,8 11,9 13 7 19 11 SSE 1008,9 26 - 0,0
25.10.2020 20:00:00 7,2 5,8 5,4 9,7 11,0 11,9 3 1 8 4 S 1009,7 54 - 0,0
25.10.2020 19:00:00 7,3 6,2 3,9 10,7 11,0 11,9 2 1 7 4 WNW 1009,0 55 - 0,0
25.10.2020 18:00:00 9,2 6,8 5,6 12,1 10,9 11,9 3 1 11 6 SE 1008,0 51 - 0,0
25.10.2020 17:00:00 11,3 8,1 9,4 13,4 10,6 11,9 6 3 8 4 ESE 1007,6 75 - 0,0
25.10.2020 16:00:00 16,0 6,2 16,0 14,5 10,2 11,9 0 0 12 7 N 1006,8 73 - 0,0
25.10.2020 15:00:00 15,5 6,5 17,2 15,0 9,8 11,9 6 4 11 6 W 1007,4 37 - 0,0
25.10.2020 14:00:00 15,9 6,4 17,7 14,6 9,3 11,9 3 2 11 6 E 1007,8 69 - 0,0
25.10.2020 13:00:00 14,3 6,2 17,3 13,5 8,8 11,9 6 3 13 7 WNW 1009,1 74 - 0,0
25.10.2020 12:00:00 13,0 7,5 16,6 11,8 8,4 11,9 8 4 11 6 NW 1009,8 75 - 0,0
25.10.2020 11:00:00 11,1 6,4 13,3 9,3 8,3 11,9 2 1 7 4 NW 1011,0 68 - 0,0
25.10.2020 10:00:00 9,1 5,5 10,3 6,7 8,2 11,9 3 1 6 3 SSE 1012,1 70 - 0,0
25.10.2020 09:00:00 6,0 3,8 7,3 4,7 8,4 11,9 0 0 9 5 N 1013,5 72 - 0,0
25.10.2020 08:00:00 2,4 1,3 1,5 3,6 8,6 11,9 3 1 13 7 ESE 1015,0 58 - 0,0
25.10.2020 07:00:00 1,1 0,7 -1,5 3,6 8,8 11,9 5 3 8 5 SE 1015,8 26 - 0,0
25.10.2020 06:00:00 2,2 1,4 -0,8 3,9 9,1 11,9 3 2 15 8 SSW 1015,8 52 - 0,0
25.10.2020 05:00:00 2,5 2,1 0,0 4,2 9,4 11,9 7 4 16 8 SE 1015,9 48 - 0,0
25.10.2020 04:00:00 1,3 1,0 -1,4 4,6 9,6 11,9 4 2 11 6 ESE 1016,5 45 - 0,0
25.10.2020 03:00:00 1,7 1,6 -0,4 5,0 9,9 11,9 9 5 12 7 ESE 1016,8 22 - 0,0
25.10.2020 02:00:00 1,1 0,6 -1,6 5,5 10,2 11,9 0 0 8 4 N 1017,7 0,3 - 0,0
25.10.2020 01:00:00 - - - - - - - - - - - - - - -
25.10.2020 00:00:00 3,2 2,9 0,5 6,5 10,7 11,9 3 2 6 3 SSE 1018,3 18 - 0,0
24.10.2020 23:00:00 4,1 3,5 1,1 7,2 10,9 11,9 2 1 12 6 SW 1018,8 17 - 0,0
24.10.2020 22:00:00 5,4 4,7 3,1 7,7 11,2 11,9 7 4 13 7 SSE 1018,9 52 - 0,0
24.10.2020 21:00:00 6,3 5,4 4,6 8,3 11,4 11,9 6 4 13 7 SSE 1019,0 50 - 0,0
24.10.2020 20:00:00 5,1 4,4 2,7 9,0 11,6 11,8 4 2 12 7 ESE 1019,5 27 - 0,0
24.10.2020 19:00:00 6,4 5,6 3,2 10,0 11,8 11,8 4 2 8 4 SE 1019,3 43 - 0,0
24.10.2020 18:00:00 6,7 5,5 3,4 11,3 11,8 11,8 5 3 8 5 S 1019,0 56 - 0,0
24.10.2020 17:00:00 11,1 7,0 9,1 12,6 11,7 11,8 8 5 16 8 SSW 1018,0 75 - 0,0
24.10.2020 16:00:00 12,9 6,8 13,3 13,5 11,6 11,8 12 7 20 11 SW 1017,8 74 - 0,0
24.10.2020 15:00:00 13,1 8,2 14,7 13,4 11,5 11,8 11 6 26 14 SSW 1018,2 65 - 0,0
24.10.2020 14:00:00 13,1 8,1 15,5 12,5 11,4 11,8 14 8 24 13 WSW 1018,8 75 - 0,0
24.10.2020 13:00:00 11,4 8,0 12,1 12,5 11,2 11,8 11 6 22 12 SW 1019,8 47 - 0,0
24.10.2020 12:00:00 11,2 8,7 11,9 12,9 11,1 11,8 14 7 28 15 SW 1020,4 57 - 0,0
24.10.2020 11:00:00 10,9 8,9 11,6 11,4 11,1 11,8 18 10 27 14 SW 1020,5 53 - 0,0

tt = temperature
td = dewpoint
tt 5cm = temperature 5cm
tt -5cm = temperature -5cm
tt -20cm = temperature -20cm
tt -100cm = temperature -100cm
ff = wind speed
fx = gusts
dd = wind direction
ppp = reduced air pressure
vv = visibility
sd = sunshine duration
rr = precipitation

Next stations